Flag for United Arab Emirates Weather past 2 weeks in Ajmān, Ajman, United Arab Emirates

Now
102 °F

Clear.


Feels Like: 101 °F
Forecast: 83 / 100 °F
Wind: 18 mph from West

Location: Sharjah International Airport

Current Time: May 25, 2015 at 4:35:08 PM

Latest Report: May 25, 2015 at 4:00 PM


Visibility: 5 mi

Pressure: 29.65 "Hg

Humidity: 21%

Dew point: 55 °F

Location of AjmānLocation

Historic Weather in Ajmān — Graph

°F

Ajmān temperature yesterday

Maximum temperature yesterday: 108 °F (at 11:00 AM)
Minimum temperature yesterday: 79 °F (at 3:00 AM)
Average temperature yesterday: 95 °F

Past Weeks' High & Low Weather Summary

 TemperatureHumidityPressure
High109 °F (May 13, 12:00 PM)100% (May 11, 11:00 PM)29.83 "Hg (May 11, 11:00 PM)
Low73 °F (May 11, 5:00 AM)7% (May 13, 11:00 AM)29.62 "Hg (May 16, 4:00 PM)
Average91 °F37%29.71 "Hg
* Reported May 10 3:00 PM — May 25 3:00 PM, Ajmān, Weather by CustomWeather, © 2015

Note: Actual official high and low records may vary slightly from our data, if they occured in-between our weather recording intervals... More about our weather records

Advertising

Ajmān weather history for previous 24 hours

 ConditionsComfort  
Time TempWeatherWind HumidityBarometerVisibility
3:00 PM
Mon, May 25
102 °FClear.18 mph24%29.68 "Hg5 mi
2:00 PM104 °FClear.18 mph23%29.68 "Hg5 mi
1:00 PM109 °FSunny.16 mph11%29.68 "Hg10 mi
12:00 PM109 °FSunny.15 mph13%29.71 "Hg10 mi
11:00 AM108 °FSunny.13 mph15%29.71 "Hg10 mi
10:00 AM104 °FSunny.10 mph14%29.71 "Hg10 mi
9:00 AM99 °FSunny.9 mph17%29.71 "Hg10 mi
8:00 AM93 °FSunny.5 mph21%29.71 "Hg10 mi
7:00 AM88 °FSunny.2 mph27%29.68 "Hg10 mi
6:00 AM88 °FSunny.8 mph25%29.65 "Hg10 mi
5:00 AM86 °FClear.6 mph29%29.65 "Hg10 mi
4:00 AM88 °FClear.7 mph27%29.65 "Hg10 mi
3:00 AM88 °FClear.5 mph29%29.65 "Hg10 mi
2:00 AM88 °FClear.5 mph29%29.65 "Hg10 mi
1:00 AM86 °FClear.3 mph35%29.65 "Hg10 mi
12:00 AM88 °FClear.3 mph35%29.68 "Hg10 mi
11:00 PM
Sun, May 24
88 °FClear.5 mph38%29.68 "Hg10 mi
10:00 PM88 °FClear.5 mph38%29.68 "Hg10 mi
9:00 PM91 °FClear.3 mph38%29.68 "Hg10 mi
8:00 PM93 °FClear.3 mph39%29.68 "Hg10 mi
7:00 PM95 °FClear.6 mph34%29.65 "Hg10 mi
6:00 PM99 °FSunny.13 mph27%29.65 "Hg10 mi
5:00 PM100 °FSunny.16 mph27%29.65 "Hg10 mi
4:00 PM106 °FSunny.18 mph17%29.65 "Hg10 mi
Weather by CustomWeather, © 2015

See weather overviewHow to use our weather pages